Find K. Von Neumann

NORAD ID: 60500 Int'l Des: 2024-149 Owner: URUGUS Country: UY Constellation: satellogic operational
LEOCIRCULARRETROGRADESSO

当前视图

正在加载3D地球...

关于 K. Von Neumann

正在加载描述...

即将过境

Passes for default location (London). Set your location on the main map for personalized predictions.

高度历史

Loading altitude history...

两行轨道根数

1 60500U 24149AJ 26159.10893875 .00010175 00000-0 35505-3 0 9990
2 60500 97.3775 240.4604 0001793 22.2816 337.8502 15.29798511100740
Epoch: Jun 8, 2026 • Age: 7 hours

当前状态

高度 485.1 km
速度 7.63 km/s
星下点 57.56°N, 164.93°W
发射日期 Aug 16, 2024
运行时间 1.8 years
类型 earth observation

技术详情

分类 Payload
质量 41.50 kg
干质量 38.50 kg
总质量 41.50 kg
长度 0.81 m
直径 0.51 m
跨度 0.81 m
形状 Box
制造商 URUGUS
平台类型 Newsat V
阶段状态 In Orbit
所有者/国家 URUGUS/UY

Most Searched